FW8733 Weather Reports


Display with metric or nautical units.
time (UTC)temp
F
wind
direction
speed
MPH
gust
MPH
rain 1hr
in
rain 24hr
in
rain mn
in
humidity
%
barometer
mb
20260903190303 100 190 1.0 3.0 0.00 0.00 0.00 47 1015.0
20260903185756 97 230 1.0 1.0 0.00 0.00 0.00 52 1015.1
20260903185256 99 240 4.0 6.0 0.00 0.00 0.00 49 1015.2
20260903184753 100 225 0.0 0.0 0.00 0.00 0.00 46 1015.3
20260903184249 100 132 1.0 2.0 0.00 0.00 0.00 45 1015.4
20260903183745 99 192 4.0 5.0 0.00 0.00 0.00 46 1015.4
20260903183244 99 144 4.0 6.0 0.00 0.00 0.00 46 1015.5
20260903182743 99 160 2.0 3.0 0.00 0.00 0.00 45 1015.7
20260903182238 99 277 3.0 5.0 0.00 0.00 0.00 48 1015.6
20260903181737 99 192 4.0 5.0 0.00 0.00 0.00 46 1015.7
20260903181232 98 212 4.0 5.0 0.00 0.00 0.00 47 1016.0
20260903180728 98 228 2.0 2.0 0.00 0.00 0.00 47 1015.9
20260903180226 98 213 1.0 2.0 0.00 0.00 0.00 47 1016.0
20260903175721 98 155 6.0 8.0 0.00 0.00 0.00 47 1016.2
20260903175215 98 242 1.0 1.0 0.00 0.00 0.00 50 1016.3
20260903174714 97 134 3.0 3.0 0.00 0.00 0.00 50 1015.9
20260903174210 98 130 5.0 6.0 0.00 0.00 0.00 48 1015.9
20260903173710 98 249 2.0 2.0 0.00 0.00 0.00 50 1016.3
20260903173206 98 193 2.0 2.0 0.00 0.00 0.00 49 1016.2
20260903172700 98 240 2.0 3.0 0.00 0.00 0.00 49 1016.3
20260903172155 98 232 3.0 5.0 0.00 0.00 0.00 50 1016.3
20260903171650 98 188 1.0 2.0 0.00 0.00 0.00 49 1016.6
20260903171147 97 227 1.0 1.0 0.00 0.00 0.00 54 1016.4
20260903170645 97 207 1.0 2.0 0.00 0.00 0.00 51 1016.5
20260903170141 98 122 2.0 5.0 0.00 0.00 0.00 49 1016.7
20260903165638 98 236 0.0 0.0 0.00 0.00 0.00 54 1016.5
20260903165133 97 114 0.0 1.0 0.00 0.00 0.00 53 1016.6
20260903164628 96 142 2.0 3.0 0.00 0.00 0.00 54 1016.6
20260903164124 96 245 0.0 0.0 0.00 0.00 0.00 55 1016.7
20260903163618 95 207 1.0 1.0 0.00 0.00 0.00 56 1017.0
20260903163115 95 139 5.0 6.0 0.00 0.00 0.00 56 1016.8
20260903162611 94 129 4.0 6.0 0.00 0.00 0.00 58 1017.0
20260903162107 94 181 7.0 8.0 0.00 0.00 0.00 57 1017.1
20260903161601 92 222 2.0 3.0 0.00 0.00 0.00 60 1017.0
20260903161057 93 199 2.0 2.0 0.00 0.00 0.00 58 1017.1
20260903160556 94 167 4.0 7.0 0.00 0.00 0.00 57 1016.7
20260903160051 94 172 1.0 2.0 0.00 0.00 0.00 58 1017.0
20260903155550 94 318 1.0 2.0 0.00 0.00 0.00 61 1017.0
20260903155045 92 169 6.0 8.0 0.00 0.00 0.00 61 1016.8
20260903154542 91 209 2.0 2.0 0.00 0.00 0.00 63 1017.0
20260903154038 91 235 4.0 6.0 0.00 0.00 0.00 64 1017.1
20260903153532 90 215 2.0 2.0 0.00 0.00 0.00 66 1017.2
20260903153028 91 179 2.0 3.0 0.00 0.00 0.00 65 1017.0
20260903152524 91 233 1.0 2.0 0.00 0.00 0.00 66 1017.2
20260903152021 91 236 1.0 1.0 0.00 0.00 0.00 65 1017.3
20260903151519 91 186 4.0 6.0 0.00 0.00 0.00 65 1017.2
20260903151015 90 176 1.0 1.0 0.00 0.00 0.00 69 1016.8
20260903150509 90 129 6.0 7.0 0.00 0.00 0.00 67 1016.8
20260903150004 90 201 1.0 1.0 0.00 0.00 0.00 68 1017.0
20260903145458 89 247 2.0 3.0 0.00 0.00 0.00 71 1017.0
20260903144954 89 186 4.0 6.0 0.00 0.00 0.00 71 1017.0
20260903144453 89 198 5.0 6.0 0.00 0.00 0.00 70 1017.0
20260903143949 88 203 2.0 2.0 0.00 0.00 0.00 73 1016.8
20260903143445 88 176 5.0 7.0 0.00 0.00 0.00 73 1017.1
20260903142940 87 194 3.0 3.0 0.00 0.00 0.00 74 1017.3
20260903142436 87 175 4.0 5.0 0.00 0.00 0.00 75 1017.3
20260903141932 87 172 3.0 3.0 0.00 0.00 0.00 76 1017.4
20260903141427 87 189 1.0 2.0 0.00 0.00 0.00 76 1017.1
20260903140923 87 236 5.0 8.0 0.00 0.00 0.00 76 1017.0
20260903140419 86 28 2.0 2.0 0.00 0.00 0.00 78 1017.1
20260903135913 85 198 2.0 3.0 0.00 0.00 0.00 79 1017.0
20260903135409 85 236 4.0 5.0 0.00 0.00 0.00 79 1017.1
20260903134908 85 203 7.0 8.0 0.00 0.00 0.00 80 1017.4
20260903134403 84 178 1.0 2.0 0.00 0.00 0.00 81 1017.3
20260903133901 84 213 2.0 5.0 0.00 0.00 0.00 81 1017.0
20260903133357 85 217 0.0 1.0 0.00 0.00 0.00 81 1017.0
20260903132857 84 223 0.0 1.0 0.00 0.00 0.00 83 1017.1
20260903132353 84 223 1.0 2.0 0.00 0.00 0.00 82 1017.2
20260903131853 84 178 3.0 3.0 0.00 0.00 0.00 83 1017.1
20260903131347 83 193 0.0 1.0 0.00 0.00 0.00 84 1017.1
20260903130846 82 190 2.0 3.0 0.00 0.00 0.00 85 1017.2
20260903130341 82 211 1.0 1.0 0.00 0.00 0.00 87 1017.1
20260903125840 81 217 0.0 0.0 0.00 0.00 0.00 88 1017.2
20260903125335 81 214 1.0 2.0 0.00 0.00 0.00 88 1017.2
20260903124834 81 217 0.0 0.0 0.00 0.00 0.00 89 1017.0
20260903124330 81 218 0.0 1.0 0.00 0.00 0.00 89 1017.1
20260903123828 80 219 0.0 0.0 0.00 0.00 0.00 89 1017.0
20260903123323 80 214 1.0 1.0 0.00 0.00 0.00 89 1016.8
20260903122821 80 221 0.0 0.0 0.00 0.00 0.00 90 1017.0
20260903122317 80 203 1.0 1.0 0.00 0.00 0.00 89 1016.7
20260903121815 80 218 2.0 3.0 0.00 0.00 0.00 89 1016.8
20260903121311 80 203 2.0 3.0 0.00 0.00 0.00 90 1016.8
20260903120807 80 215 2.0 2.0 0.00 0.00 0.00 89 1016.8
20260903120306 80 234 1.0 1.0 0.00 0.00 0.00 89 1016.6
20260903115804 80 218 1.0 1.0 0.00 0.00 0.00 89 1016.7
20260903115300 80 212 3.0 3.0 0.00 0.00 0.00 90 1016.5
20260903114759 80 212 1.0 1.0 0.00 0.00 0.00 90 1016.6
20260903114255 80 219 0.0 0.0 0.00 0.00 0.00 90 1016.6
20260903113750 80 203 1.0 1.0 0.00 0.00 0.00 91 1016.7
20260903113246 80 251 0.0 1.0 0.00 0.00 0.00 91 1016.4
20260903112742 80 220 0.0 0.0 0.00 0.00 0.00 91 1016.6
20260903112237 80 219 0.0 0.0 0.00 0.00 0.00 91 1016.4
20260903111736 80 220 0.0 0.0 0.00 0.00 0.00 91 1016.4
20260903111231 80 214 0.0 1.0 0.00 0.00 0.00 92 1016.3
20260903110727 80 209 1.0 1.0 0.00 0.00 0.00 91 1016.3
20260903110223 80 210 1.0 1.0 0.00 0.00 0.00 91 1016.3
20260903105722 80 205 0.0 1.0 0.00 0.00 0.00 92 1016.3
20260903105218 80 200 1.0 2.0 0.00 0.00 0.00 92 1016.2
20260903104717 80 213 0.0 0.0 0.00 0.00 0.00 92 1016.3
20260903104213 80 179 2.0 3.0 0.00 0.00 0.00 92 1016.2
20260903103708 79 180 2.0 3.0 0.00 0.00 0.00 92 1016.3
20260903103205 79 204 3.0 3.0 0.00 0.00 0.00 92 1016.0
20260903102700 79 196 1.0 2.0 0.00 0.00 0.00 92 1016.2
20260903102200 79 228 0.0 0.0 0.00 0.00 0.00 92 1016.4
20260903101658 79 197 0.0 0.0 0.00 0.00 0.00 92 1016.3
20260903101154 79 210 1.0 1.0 0.00 0.00 0.00 92 1016.2
20260903100654 79 219 0.0 0.0 0.00 0.00 0.00 91 1016.2
20260903100154 79 193 0.0 0.0 0.00 0.00 0.00 91 1016.0
20260903095651 79 199 0.0 1.0 0.00 0.00 0.00 91 1016.2
20260903095146 79 217 1.0 1.0 0.00 0.00 0.00 91 1016.3
20260903094642 79 218 0.0 0.0 0.00 0.00 0.00 91 1016.3
20260903094136 80 209 0.0 1.0 0.00 0.00 0.00 91 1016.3
20260903093632 80 171 2.0 2.0 0.00 0.00 0.00 90 1016.5
20260903093127 80 180 0.0 0.0 0.00 0.00 0.00 90 1016.5
20260903092627 80 218 0.0 0.0 0.00 0.00 0.00 90 1016.4
20260903092122 80 185 4.0 5.0 0.00 0.00 0.00 90 1016.3
20260903091620 80 241 0.0 0.0 0.00 0.00 0.00 90 1016.4
20260903091114 80 201 2.0 2.0 0.00 0.00 0.00 89 1016.4
20260903090611 80 198 1.0 1.0 0.00 0.00 0.00 89 1016.5
20260903090109 80 168 3.0 3.0 0.00 0.00 0.00 89 1016.4
20260903085608 80 210 1.0 1.0 0.00 0.00 0.00 89 1016.4
20260903085104 80 208 1.0 2.0 0.00 0.00 0.00 89 1016.5
20260903084601 80 216 0.0 1.0 0.00 0.00 0.00 89 1016.5
20260903084056 80 208 0.0 1.0 0.00 0.00 0.00 89 1016.3
20260903083552 80 199 1.0 2.0 0.00 0.00 0.00 89 1016.5
20260903083052 80 208 0.0 1.0 0.00 0.00 0.00 88 1016.7
20260903082546 80 207 1.0 2.0 0.00 0.00 0.00 88 1016.6
20260903082042 80 229 0.0 1.0 0.00 0.00 0.00 88 1016.5
20260903081537 80 207 2.0 2.0 0.00 0.00 0.00 87 1016.6
20260903081033 80 243 3.0 3.0 0.00 0.00 0.00 87 1016.5
20260903080529 81 228 2.0 2.0 0.00 0.00 0.00 87 1016.6
20260903080026 81 208 3.0 3.0 0.00 0.00 0.00 86 1016.4
20260903075520 81 168 3.0 3.0 0.00 0.00 0.00 86 1016.5
20260903075015 81 154 4.0 6.0 0.00 0.00 0.00 86 1016.5
20260903074515 81 219 2.0 5.0 0.00 0.00 0.00 85 1016.5
20260903074009 81 197 1.0 2.0 0.00 0.00 0.00 85 1016.6
20260903073504 81 203 3.0 3.0 0.00 0.00 0.00 85 1016.8
20260903073000 81 168 4.0 5.0 0.00 0.00 0.00 84 1016.8
20260903072456 81 152 4.0 5.0 0.00 0.00 0.00 84 1016.6
20260903071953 81 182 2.0 2.0 0.00 0.00 0.00 83 1016.4
20260903071448 82 221 2.0 2.0 0.00 0.00 0.00 83 1016.5
20260903070944 82 215 2.0 3.0 0.00 0.00 0.00 82 1016.6
20260903070444 82 197 2.0 3.0 0.00 0.00 0.00 81 1016.6
20260903065944 82 181 3.0 3.0 0.00 0.00 0.00 80 1016.6
20260903065439 82 206 2.0 2.0 0.00 0.00 0.00 79 1016.6
20260903064938 82 218 2.0 2.0 0.00 0.00 0.00 79 1016.8
20260903064433 82 184 3.0 3.0 0.00 0.00 0.00 78 1017.2
20260903063929 82 212 2.0 3.0 0.00 0.00 0.00 78 1017.1
20260903063424 82 212 2.0 2.0 0.00 0.00 0.00 77 1016.7
20260903062920 83 189 1.0 1.0 0.00 0.00 0.00 76 1017.2
20260903062420 83 192 3.0 3.0 0.00 0.00 0.00 76 1016.7
20260903061915 83 185 1.0 1.0 0.00 0.00 0.00 75 1017.1
20260903061415 83 146 3.0 6.0 0.00 0.00 0.00 74 1017.1
20260903060910 84 218 0.0 1.0 0.00 0.00 0.00 74 1016.7
20260903060404 84 174 3.0 3.0 0.00 0.00 0.00 73 1017.1
20260903055902 84 167 5.0 7.0 0.00 0.00 0.00 73 1016.6
20260903055400 84 211 4.0 5.0 0.00 0.00 0.00 72 1016.6
20260903054856 84 156 2.0 5.0 0.00 0.00 0.00 72 1016.8
20260903054356 84 191 2.0 2.0 0.00 0.00 0.00 72 1016.4
20260903053852 84 178 4.0 5.0 0.00 0.00 0.00 71 1016.5
20260903053347 84 162 4.0 8.0 0.00 0.00 0.00 71 1016.7
20260903052843 85 147 4.0 8.0 0.00 0.00 0.00 70 1016.6
20260903052338 85 168 5.0 6.0 0.00 0.00 0.00 70 1016.6
20260903051834 85 218 3.0 5.0 0.00 0.00 0.00 69 1016.6
20260903051329 85 209 4.0 6.0 0.00 0.00 0.00 69 1016.5
20260903050825 85 182 6.0 7.0 0.00 0.00 0.00 69 1016.4
20260903050324 85 133 3.0 3.0 0.00 0.00 0.00 69 1016.2
20260903045819 85 180 4.0 5.0 0.00 0.00 0.00 69 1016.5
20260903045314 85 220 5.0 6.0 0.00 0.00 0.00 69 1016.4
20260903044811 86 192 3.0 5.0 0.00 0.00 0.00 69 1016.4
20260903044306 86 169 3.0 5.0 0.00 0.00 0.00 68 1016.3
20260903043802 86 168 3.0 5.0 0.00 0.00 0.00 68 1016.5
20260903043302 86 149 2.0 2.0 0.00 0.00 0.00 67 1016.5
20260903042801 86 165 5.0 6.0 0.00 0.00 0.00 67 1016.4
20260903042256 86 193 3.0 5.0 0.00 0.00 0.00 66 1016.4
20260903041753 86 164 3.0 5.0 0.00 0.00 0.00 65 1016.2
20260903041249 87 206 5.0 7.0 0.00 0.00 0.00 65 1016.1
20260903040748 87 219 1.0 1.0 0.00 0.00 0.00 64 1016.3
20260903040243 87 138 6.0 8.0 0.00 0.00 0.00 64 1016.0
20260903035739 87 194 3.0 5.0 0.00 0.00 0.00 63 1016.2
20260903035234 88 230 4.0 5.0 0.00 0.00 0.00 63 1016.2
20260903034729 88 182 4.0 7.0 0.00 0.00 0.00 62 1016.0
20260903034224 88 180 3.0 5.0 0.00 0.00 0.00 61 1016.0
20260903033720 88 172 8.0 11.0 0.00 0.00 0.00 60 1015.9
20260903033220 88 176 5.0 6.0 0.00 0.00 0.00 61 1016.1
20260903032714 88 187 2.0 3.0 0.00 0.00 0.00 60 1016.0
20260903032210 88 148 3.0 3.0 0.00 0.00 0.00 60 1015.7
20260903031706 89 197 1.0 2.0 0.00 0.00 0.00 60 1015.8
20260903031205 89 211 1.0 2.0 0.00 0.00 0.00 59 1015.8
20260903030702 89 170 3.0 3.0 0.00 0.00 0.00 59 1015.6
20260903030157 89 211 2.0 2.0 0.00 0.00 0.00 59 1015.5
20260903025652 89 200 2.0 3.0 0.00 0.00 0.00 59 1015.4
20260903025148 88 232 0.0 0.0 0.00 0.00 0.00 60 1015.4
20260903024643 87 207 2.0 2.0 0.00 0.00 0.00 62 1015.2
20260903024141 87 208 0.0 0.0 0.00 0.00 0.00 63 1015.2
20260903023638 87 208 0.0 0.0 0.00 0.00 0.00 62 1015.1
20260903023138 88 208 0.0 0.0 0.00 0.00 0.00 61 1014.9
20260903022632 88 207 0.0 0.0 0.00 0.00 0.00 61 1014.8
20260903022131 88 208 0.0 0.0 0.00 0.00 0.00 60 1014.8
20260903021626 89 208 0.0 0.0 0.00 0.00 0.00 58 1015.0
20260903021126 89 208 0.0 0.0 0.00 0.00 0.00 57 1014.8
20260903020621 89 208 0.0 0.0 0.00 0.00 0.00 57 1014.5
20260903020116 89 208 0.0 0.0 0.00 0.00 0.00 56 1014.7
20260903015612 90 208 0.0 0.0 0.00 0.00 0.00 56 1014.6
20260903015107 90 208 0.0 0.0 0.00 0.00 0.00 55 1014.5
20260903014607 91 208 0.0 0.0 0.00 0.00 0.00 55 1014.5
20260903014106 91 203 2.0 2.0 0.00 0.00 0.00 54 1014.3
20260903013601 90 216 1.0 1.0 0.00 0.00 0.00 55 1014.4
20260903013056 90 233 0.0 0.0 0.00 0.00 0.00 61 1014.4
20260903012555 91 233 0.0 0.0 0.00 0.00 0.00 59 1014.4
20260903012054 91 233 0.0 0.0 0.00 0.00 0.00 56 1014.3
20260903011549 92 233 0.0 0.0 0.00 0.00 0.00 54 1014.3
20260903011049 93 205 0.0 0.0 0.00 0.00 0.00 53 1014.3
20260903010544 93 173 2.0 3.0 0.00 0.00 0.00 51 1014.3
20260903010042 93 205 0.0 0.0 0.00 0.00 0.00 52 1014.0
20260903005537 94 205 0.0 0.0 0.00 0.00 0.00 51 1014.4
20260903005033 94 220 0.0 0.0 0.00 0.00 0.00 50 1014.0
20260903004532 94 173 1.0 2.0 0.00 0.00 0.00 49 1014.1
20260903004028 94 205 0.0 0.0 0.00 0.00 0.00 48 1014.2
20260903003523 94 219 0.0 0.0 0.00 0.00 0.00 50 1014.1
20260903003019 95 226 0.0 0.0 0.00 0.00 0.00 48 1014.0
20260903002519 95 226 0.0 0.0 0.00 0.00 0.00 48 1014.2
20260903002013 95 217 2.0 2.0 0.00 0.00 0.00 46 1014.0
20260903001508 95 215 1.0 1.0 0.00 0.00 0.00 47 1014.1
20260903001007 95 233 0.0 0.0 0.00 0.00 0.00 48 1014.2
20260903000503 95 233 0.0 0.0 0.00 0.00 0.00 47 1014.1
20260903000001 95 242 0.0 0.0 0.00 0.00 0.00 47 1014.1
20260902235456 96 228 0.0 0.0 0.00 0.00 0.00 46 1014.2
20260902234950 97 220 0.0 0.0 0.00 0.00 0.00 43 1014.3
20260902234445 97 203 0.0 0.0 0.00 0.00 0.00 44 1014.2
20260902233944 98 205 0.0 0.0 0.00 0.00 0.00 43 1014.1
20260902233438 99 207 0.0 0.0 0.00 0.00 0.00 41 1014.2
20260902232938 100 186 1.0 2.0 0.00 0.00 0.00 40 1014.2
20260902232433 101 243 0.0 0.0 0.00 0.00 0.00 42 1014.2
20260902231932 99 242 0.0 0.0 0.00 0.00 0.00 42 1014.2
20260902231428 100 241 0.0 0.0 0.00 0.00 0.00 41 1014.1
20260902230922 101 255 0.0 0.0 0.00 0.00 0.00 42 1014.1
20260902230422 101 231 0.0 1.0 0.00 0.00 0.00 40 1014.0
20260902225916 100 218 0.0 0.0 0.00 0.00 0.00 43 1014.2
20260902225411 99 187 2.0 2.0 0.00 0.00 0.00 42 1014.1
20260902224909 100 205 2.0 2.0 0.00 0.00 0.00 42 1014.2
20260902224409 99 204 0.0 0.0 0.00 0.00 0.00 45 1014.1
20260902223906 98 208 2.0 2.0 0.00 0.00 0.00 44 1014.3
20260902223401 100 215 2.0 2.0 0.00 0.00 0.00 43 1014.4
20260902222856 99 224 0.0 0.0 0.00 0.00 0.00 44 1014.3
20260902222354 99 223 0.0 0.0 0.00 0.00 0.00 42 1014.4
20260902221853 98 206 2.0 3.0 0.00 0.00 0.00 43 1014.5
20260902221353 97 205 2.0 2.0 0.00 0.00 0.00 45 1014.4
20260902220849 97 249 1.0 2.0 0.00 0.00 0.00 43 1014.5
20260902220348 98 195 0.0 0.0 0.00 0.00 0.00 43 1014.6
20260902215843 98 205 0.0 0.0 0.00 0.00 0.00 45 1014.6
20260902215338 98 235 0.0 1.0 0.00 0.00 0.00 44 1014.4
20260902214835 99 205 3.0 3.0 0.00 0.00 0.00 42 1014.5
20260902214333 99 263 0.0 1.0 0.00 0.00 0.00 43 1014.5
20260902213828 100 159 1.0 3.0 0.00 0.00 0.00 42 1014.5
20260902213324 99 216 2.0 2.0 0.00 0.00 0.00 43 1014.8
20260902212823 99 199 2.0 2.0 0.00 0.00 0.00 41 1014.8
20260902212320 100 148 3.0 3.0 0.00 0.00 0.00 41 1014.6
20260902211816 100 214 0.0 0.0 0.00 0.00 0.00 44 1014.6
20260902211311 101 192 1.0 3.0 0.00 0.00 0.00 40 1014.9
20260902210806 101 213 3.0 3.0 0.00 0.00 0.00 40 1015.0
20260902210301 102 224 0.0 0.0 0.00 0.00 0.00 41 1014.6
20260902205759 100 227 1.0 2.0 0.00 0.00 0.00 41 1014.9
20260902205254 101 127 3.0 3.0 0.00 0.00 0.00 41 1015.1
20260902204749 100 159 3.0 3.0 0.00 0.00 0.00 41 1015.3
20260902204244 102 190 4.0 6.0 0.00 0.00 0.00 41 1015.1
20260902203738 102 182 2.0 3.0 0.00 0.00 0.00 40 1015.2
20260902203233 102 172 4.0 6.0 0.00 0.00 0.00 40 1015.4
20260902202734 102 240 1.0 1.0 0.00 0.00 0.00 43 1015.3
20260902202230 103 298 3.0 3.0 0.00 0.00 0.00 41 1015.3
20260902201727 102 146 6.0 7.0 0.00 0.00 0.00 40 1015.4
20260902201225 100 218 5.0 7.0 0.00 0.00 0.00 41 1015.3
20260902200721 101 180 3.0 5.0 0.00 0.00 0.00 43 1015.8
20260902200217 101 181 6.0 9.0 0.00 0.00 0.00 41 1015.6
20260902195712 100 199 3.0 3.0 0.00 0.00 0.00 44 1015.6
20260902195211 100 215 0.0 1.0 0.00 0.00 0.00 44 1015.8
20260902194710 99 215 3.0 3.0 0.00 0.00 0.00 43 1015.8
20260902194206 102 123 7.0 9.0 0.00 0.00 0.00 41 1015.9
20260902193701 101 295 2.0 2.0 0.00 0.00 0.00 41 1015.9
20260902193157 102 275 3.0 3.0 0.00 0.00 0.00 40 1015.9
20260902192654 102 274 1.0 2.0 0.00 0.00 0.00 40 1016.1
20260902192149 102 231 0.0 0.0 0.00 0.00 0.00 42 1016.2
20260902191649 101 270 1.0 1.0 0.00 0.00 0.00 43 1016.2
20260902191143 101 227 0.0 0.0 0.00 0.00 0.00 42 1016.3